Weather History for Mountain Home, ID

Change the Weather History Date:

Sunday, September 16, 2012

  Actual Average Record
Temperature  
Mean Temperature 66 °F 63 °F  
Max Temperature 85 °F 80 °F 97 °F (2002)
Min Temperature 47 °F 46 °F 24 °F (1921)
Degree Days  
Heating Degree Days 0 4  
Month to date heating degree days 14 37  
Cooling Degree Days 1 3  
Month to date cooling degree days 54 67  
Growing Degree Days 16 (Base 50)    
Moisture  
Dew Point 32 °F    
Average Humidity 29    
Maximum Humidity 54    
Minimum Humidity 15    
Precipitation  
Precipitation 0.00 in 0.02 in 0.21 in (1976)
Month to date precipitation T 0.23  
Sea Level Pressure  
Sea Level Pressure 30.01 in    
Wind  
Wind Speed 9 mph (NW)    
Max Wind Speed 20 mph    
Max Gust Speed 25 mph    
Visibility 10 miles    
Events      
T = Trace of Precipitation, MM = Missing Value Source: NWS Daily Summary

Daily Weather History Graph

Daily Weather History Graph

Search for Another Location

Airport:

Trip Planner

Search our weather history database for the weather conditions in past years. The results will help you decide how hot, cold, wet, or windy it might be!

Date:

Astronomy

Sep. 16, 2012 Rise Set
Actual Time 7:24 AM MDT 7:50 PM MDT
Civil Twilight 6:56 AM MDT 8:19 PM MDT
Nautical Twilight 6:22 AM MDT 8:52 PM MDT
Astronomical Twilight 5:48 AM MDT 9:26 PM MDT
Moon 8:11 AM MDT (9/16) 7:54 PM MDT (9/16)
Length of Visible Light 13h 22m
Length of Day
12h 25m
New Moon, 1% of the Moon is Illuminated
Sep 16
New Moon
Sep 22
First Quarter
Sep 29
Full
Oct 8
Last Quarter
Oct 15
New

Hourly Weather History & Observations

Time (MDT) Temp. Dew Point Humidity Pressure Visibility Wind Dir Wind Speed Gust Speed Precip Events Conditions
12:55 AM 62.4 °F 32.5 °F 33% 29.95 in 10.0 mi SSW 10.4 mph - N/A   Mostly Cloudy
1:55 AM 58.6 °F 34.5 °F 40% 29.94 in 10.0 mi ENE 6.9 mph - N/A   Clear
2:55 AM 62.8 °F 30.4 °F 30% 29.95 in 10.0 mi North 9.2 mph - N/A   Clear
3:55 AM 59.2 °F 28.4 °F 31% 29.98 in 10.0 mi NW 3.5 mph - N/A   Clear
4:55 AM 52.2 °F 28.4 °F 40% 29.99 in 10.0 mi Calm Calm - N/A   Clear
5:55 AM 51.3 °F 32.9 °F 50% 30.00 in 10.0 mi NNE 5.8 mph - N/A   Clear
6:55 AM 48.4 °F 32.4 °F 54% 30.02 in 10.0 mi Calm Calm - N/A   Clear
7:55 AM 54.3 °F 33.8 °F 46% 30.04 in 10.0 mi Calm Calm - N/A   Clear
8:55 AM 56.5 °F 36.1 °F 47% 30.06 in 10.0 mi NW 3.5 mph - N/A   Clear
9:55 AM 63.5 °F 36.3 °F 36% 30.07 in 10.0 mi NW 5.8 mph - N/A   Clear
10:55 AM 72.7 °F 34.3 °F 25% 30.05 in 10.0 mi WNW 13.8 mph - N/A   Clear
11:55 AM 75.6 °F 35.8 °F 24% 30.05 in 8.0 mi West 9.2 mph - N/A   Clear
12:55 PM 79.5 °F 33.8 °F 19% 30.03 in 8.0 mi WNW 11.5 mph - N/A   Clear
1:55 PM 81.5 °F 35.6 °F 19% 30.03 in 10.0 mi NW 16.1 mph - N/A   Clear
2:55 PM 82.4 °F 35.6 °F 19% 30.00 in 10.0 mi WNW 15.0 mph 20.7 mph N/A   Clear
3:55 PM 84.6 °F 32.5 °F 15% 29.99 in 10.0 mi WNW 18.4 mph 25.3 mph N/A   Clear
4:55 PM 84.0 °F 31.8 °F 15% 29.98 in 10.0 mi NW 18.4 mph - N/A   Clear
5:55 PM 83.1 °F 33.1 °F 16% 29.98 in 10.0 mi NW 19.6 mph - N/A   Clear
6:55 PM 81.3 °F 33.1 °F 18% 29.99 in 10.0 mi NW 17.3 mph - N/A   Clear
7:55 PM 77.5 °F 28.4 °F 16% 29.98 in 10.0 mi NNW 11.5 mph - N/A   Clear
8:55 PM 73.6 °F 29.3 °F 19% 30.00 in 10.0 mi NNW 10.4 mph - N/A   Clear
9:55 PM 65.3 °F 29.1 °F 26% 30.02 in 10.0 mi West 8.1 mph - N/A   Clear
10:55 PM 65.3 °F 30.9 °F 28% 30.01 in 10.0 mi WNW 3.5 mph - N/A   Clear
11:55 PM 59.7 °F 28.9 °F 31% 30.03 in 10.0 mi WNW 3.5 mph - N/A   Clear